Location: Buffign�court
(47.8126°N, 6.0176°E)
Time: 20:26:20
(UTC+00:00)

NOSS 3-2 (C) - Pass Details

Date: 16 June 2021
Orbit: 778 x 1434 km, 63.4° (Epoch: 14 July)

Event Time Altitude Azimuth Distance (km) Brightness Sun altitude
Rises 21:10:35 0° 236° (SW) 3,356 6.3 -11.6°
Reaches altitude 10° 21:12:57 10° 241° (WSW) 2,482 5.7 -11.8°
Maximum altitude 21:18:34 55° 319° (NW) 1,120 4.3 -12.3°
Drops below altitude 10° 21:25:08 10° 37° (NE) 2,888 6.3 -12.9°
Sets 21:28:05 0° 42° (NE) 3,953 6.9 -13.2°
